Starlink 35649

operational
NORAD ID: 66125 Int'l Des: 2025-237 Owner: SPXS Country: US Constellation: starlink
LEOCIRCULAR

关于 Starlink 35649

正在加载描述...

实时位置

正在加载3D地球...

即将过境

高度历史

Altitude vs Time

uPlot chart will show altitude changes over time

两行轨道根数

1 66125U 25237M 25349.50457037 .00038211 00000-0 95961-3 0 9991
2 66125 53.1613 74.0434 0000673 100.0705 260.0376 15.39647809 9670
Epoch: Dec 15, 2025 • Age: 31 hours

当前状态

高度 465.3 km
速度 7.63 km/s
星下点 -52.03°S, 47.48°W
发射日期 Oct 22, 2025
运行时间 0.1 years
类型 internet

技术详情

分类 Payload
质量 575.00 kg
干质量 530.00 kg
总质量 575.00 kg
长度 0.30 m
直径 4.10 m
跨度 29.00 m
形状 Box + pan
制造商 SPXS
平台类型 Starlink V2MO
阶段状态 In Orbit
所有者/国家 SPXS/US

大型星座

Loading constellations...